Regional Weather Roundup
Issued by NWS Lake Charles, LA

Home | Current Version | Previous Version | Text Only | Print | Product List | Glossary On
Versions: 1 2 3 4 5 6 7 8 9 10 11 12 13 14 15 16 17 18 19 20 21 22 23 24 25 26 27 28 29 30 31 32 33 34 35 36 37 38 39 40 41 42 43 44 45 46 47 48 49 50
000
ASUS44 KLCH 281810
RWRLCH
RWRLCH
REGIONAL WEATHER ROUNDUP
NATIONAL WEATHER SERVICE LAKE CHARLES LA
1200 PM CST SAT FEB 28 2015

Note: "fair" indicates few or no clouds below 12,000 feet with no
significant weather and/or obstructions to visibility.


ACROSS SOUTHEAST TEXAS

CITY           SKY/WX    TMP DP  RH WIND       PRES   REMARKS
BEAUMONT       CLOUDY    53  37  54 E10       30.34S
BEAUMONT CITY  CLOUDY    52  38  58 SE12      30.34S
ORANGE         CLOUDY    53  38  56 E8        30.34F
JASPER         PTSUNNY   49  32  52 E6        30.36F
$$

ACROSS CENTRAL LOUISIANA

CITY           SKY/WX    TMP DP  RH WIND       PRES   REMARKS
LEESVILLE      CLOUDY    51  32  49 SE7       30.33F
FULLERTON      CLOUDY    54  31  41 VRB3      30.33F
ALEXANDRIA INT CLOUDY    50  32  50 VRB5      30.37F
ESLER FIELD    CLOUDY    54  31  41 N8        30.37F
DERIDDER       CLOUDY    53  32  44 CALM      30.36F
OAKDALE        MOCLDY    58  36  43 SE8G16    30.35F
OPELOUSAS      MOCLDY    59  38  45 E8        30.34F
$$

ACROSS SOUTHWEST AND SOUTH CENTRAL LOUISIANA

CITY           SKY/WX    TMP DP  RH WIND       PRES   REMARKS
SULPHUR        CLOUDY    54  37  53 E7        30.34F
LAKE CHARLES   CLOUDY    55  37  50 E14       30.32F
CHENNAULT INT  PTSUNNY   54  36  50 E12       30.33F
CAMERON PHI    MOCLDY    54  39  58 E12       30.35F
DEQUINCY       NOT AVBL
JENNINGS       CLOUDY    55  37  52 E12       30.33F
LAFAYETTE      SUNNY     59  40  49 E9        30.34F
NEW IBERIA     SUNNY     61  43  51 E15       30.34F
ABBEVILLE        N/A     58  42  55 E9        30.34F
PATTERSON      SUNNY     57  43  58 E14       30.35F
SALT POINT       N/A     60  45  57 VRB7G20   30.31F
$$

SELECTED SITES ACROSS THE REGION

CITY           SKY/WX    TMP DP  RH WIND       PRES   REMARKS
HOUSTON BUSH   CLOUDY    51  36  56 E10       30.31F
HOUSTON HOBBY  PTSUNNY   54  42  64 E12G21    30.29F
GALVESTON      CLOUDY    55  48  77 E16       30.28F
COLLEGE STAT   CLOUDY    45  32  60 NE5       30.31F
CONROE         CLOUDY    45  32  60 E8        30.32F
HUNTSVILLE     CLOUDY    45  34  65 NE7       30.31F
LUFKIN         CLOUDY    46  30  53 E7        30.35F
SHREVEPORT     CLOUDY    40  27  59 E9        30.39F
MONROE         CLOUDY    44  31  60 E10       30.43F
NATCHEZ MS     CLOUDY    57  34  41 E12       30.38F
BATON ROUGE    MOSUNNY   62  40  44 E10       30.35F
N.O. INTL ARPT MOSUNNY   59  43  55 E10G18    30.37F
SLIDELL        SUNNY     62  42  47 E10       30.37F
$$

MARINE REPORTS

STATION/POSITION TIME  TEMP    WIND        PRES    VSBY  WAVE
                       AIR SEA DIR/SP/G                  HT/PER
                 (UTC) (F)     (DEG/KT/KT) (MB)    (MI)  (FT/S)
BUOY 30 S HIGH I 1800   53 56   70/ 19/ 23 1024.7F         6/ 8
SEA RIM ST PARK  1800   50     100/ 15/ 17 1027.1F
PORT ARTHUR      1800      51  100/  9/ 12 1027.4R
SABINE PASS N    1800   49 49  110/ 12/ 16 1026.8F
TEXAS POINT      NOT AVBL
CALCASIEU PASS   1800   51 50  110/ 12/ 16   N/A
LK CHARLES BEACH 1800   53                 1027.2F
MARSH ISLAND     NOT AVBL
FRESH WATER LOCK 1800   55 49   70/ 12/ 16 1026.9S
AMERADA PASS     1800   58 45   90/ 13/ 17 1026.8F
$$



USA.gov is the U.S. government's official web portal to all federal, state and local government web resources and services.